Back to catalog

ATLAS 5 CENTAUR DEB

AliveHEO
NORAD 44845·DEBRIS·🇺🇸 United States

Launched Sep 17, 2014 from Cape Canaveral Space Force Station

Loading…

Next Passes (next 24 hours)

TLE

FreshSource: Space-Track

Epoch: Sep 13, 2026, 13:40 UTC

1 44845U 14055CD  26256.57008394 -.00000128  00000-0  00000-0 0  9999
2 44845  20.5604 119.3677 4975915 207.7439 113.2931  1.84917502 46063

Track ATLAS 5 CENTAUR DEB in real time with AllMySat

Download on the App Store